Location: Newark
(41.0400°S, 62.7845°W)
Time: 16:28:40
(UTC+00:00)

Vanguard 2 Rocket - Pass Details

Date: 02 December 2021
Orbit: 553 x 3325 km, 32.9° (Epoch: 23 January)

Event Time Altitude Azimuth Distance (km) Brightness Sun altitude
Rises 12:22:54 0° 278° (W) 6,599 10.8 40.8°
Reaches altitude 10° 12:27:59 10° 281° (WNW) 5,198 10.4 41.7°
Maximum altitude 12:41:12 54° 353° (N) 1,930 9.2 44.2°
Drops below altitude 10° 12:48:40 10° 68° (ENE) 3,026 10.6 45.6°
Sets 12:50:52 0° 73° (ENE) 3,729 10.8 46.0°
